www.pogodaiklimat.ru

Погода и климат >> Архив погоды >> Австрия >> Инсбрук


ПОГОДА в Инсбруке

  • Прогноз погоды в Инсбруке
  • Монитор погоды в Инсбруке

АРХИВ ПОГОДЫ в Инсбруке

Время (UTC), дата Ветер
(напр.,м/с)
 
Видим.   Явления Облачность Т
(С)
Тd
(С)
f
(%)
Тe
(С)
Тes
(С)
Комфортность P
(гПа)
Po
(гПа)
Тmin
(С)
Tmax
(С)
R
(мм)
R24
(мм)
S
(см)
07 11.07 45 км 9/0
[]
+13.2 +8.6 74 1017.3 948.6
08 11.07 45 км 8/0
[]
+15.0 +8.9 67 1016.2 948.0
09 11.07 50 км 8/0
[]
+17.3 +8.8 57 1015.1 947.5
10 11.07 50 км 9/0
[]
+18.6 +9.0 54 1013.9 946.7
11 11.07 60 км 9/0
[]
+19.5 +9.8 53 1013.6 946.6
12 11.07 З 7 16 км слаб. дождь 10/0 2000 м
[]
+16.9 +11.4 70 +16 +18 1014.5 946.9 0.1
13 11.07 40 км 10/0 2000 м
[]
+17.0 +10.8 67 1014.6 947.0 0.3
14 11.07 27 км слаб. дождь 10/10 900 м
[]
+17.6 +11.6 68 1014.5 947.1 0.3
15 11.07 29 км слаб. дождь 10/10 900 м
[]
+17.5 +11.6 68 1014.4 947.0 0.1
16 11.07 12 км дождь 10/10 600 м
[]
+15.4 +13.0 86 1015.3 947.4 1
17 11.07 18 км слаб. ливневой дождь 10/10 150 м
[]
+15.1 +13.4 90 1015.4 947.4 0.7
18 11.07 С 1 23 км слаб. дождь 10/10 300 м
[]
+15.7 +13.5 87 +16 +16 1015.4 947.5 +19.8 0.1
19 11.07 28 км 10/10 300 м
[]
+15.0 +13.5 91 1015.5 947.5 0.1
20 11.07 17 км 8/8 240 м
[]
+14.2 +13.1 93 1016.2 947.9
21 11.07 С 1 5000 м 8/8 210 м
[]
+13.8 +12.8 94 +14 +14 1016.3 947.9
22 11.07 3400 м дымка 9/9 90 м
[]
+12.5 +11.8 95 1016.8 948.1
23 11.07 21 км 10/10 90 м
[]
+12.6 +11.8 95 1016.8 948.1
00 12.07 С 1 27 км 10/10 120 м
[]
+13.0 +12.2 95 +13 +13 1016.5 947.9 0.1
01 12.07 22 км 10/10 150 м
[]
+13.0 +12.2 95 1016.3 947.7
02 12.07 14 км 10/10 300 м
[]
+13.0 +12.1 94 1016.1 947.5
03 12.07 С 2 12 км 10/10 90 м
[]
+12.9 +12.1 95 +12 +12 1015.7 947.1
04 12.07 13 км слаб. дождь 10/10 300 м
[]
+13.0 +12.3 96 1016.4 947.8 0.3
05 12.07 15 км дождь 10/10 300 м
[]
+13.2 +12.5 96 1016.2 947.7 0.1
06 12.07 15 км слаб. морось 10/10 150 м
[]
+13.5 +12.6 94 1016.3 947.9 +12.5 0.1
07 12.07 18 км слаб. дождь 10/10 150 м
[]
+13.6 +12.6 94 1016.5 948.1 0.4
08 12.07 40 км слаб. морось 10/10 210 м
[]
+14.4 +12.3 87 1016.1 947.9 0.0
09 12.07 С 2 27 км слаб. ливневой дождь 10/10 210 м
[]
+15.4 +13.3 87 +15 +15 1015.9 947.9
10 12.07 18 км слаб. дождь 10/10 210 м
[]
+15.4 +12.9 85 1015.7 947.7 0.4
11 12.07 З 4 20 км слаб. дождь 10/10 210 м
[]
+15.1 +12.8 86 +14 +14 1016.0 947.9 0.3
12 12.07 З 6 11 км дождь 10/10 210 м
[]
+14.4 +12.5 88 +12 +12 1016.4 948.2 3
13 12.07 З 3 25 км слаб. дождь 10/10 210 м
[]
+15.0 +13.5 91 +14 +14 1016.2 948.1 2
14 12.07 50 км 9/9 300 м
[]
+16.5 +13.4 82 1015.5 947.8 0.0
15 12.07 С 2 50 км 9/9 450 м
[]
+17.3 +13.0 76 +18 +19 1014.5 947.0 0.0
16 12.07 55 км 5/5 750 м
[]
+18.4 +13.1 71 1013.1 946.0
17 12.07 55 км 6/6 750 м
[]
+17.4 +13.0 75 1012.9 945.6
18 12.07 ЮЗ 4 9000 м ливневой дождь 10/10 450 м
[]
+16.1 +13.4 84 +15 +15 1013.8 946.1 +18.8 1
19 12.07 30 км слаб. дождь 10/10 450 м
[]
+15.0 +13.8 93 1013.6 945.7 1
20 12.07 6000 м ливневой дождь 10/10 450 м
[]
+14.6 +13.7 94 1015.6 947.5 5
21 12.07 17 км дождь 10/10 450 м
[]
+14.3 +13.6 96 1015.2 947.0 3
22 12.07 35 км 10/10 180 м
[]
+14.0 +13.2 95 1015.3 947.0 0.6
23 12.07 13 км слаб. ливневой дождь 10/10 150 м
[]
+13.4 +12.6 95 1016.2 947.7 2
00 13.07 С 3 30 км 10/10 180 м
[]
+13.1 +12.3 95 +12 +12 1016.1 947.6 4
01 13.07 3400 м ливневой дождь 10/10 150 м
[]
+13.0 +12.2 95 1015.6 947.1 3
02 13.07 20 км слаб. дождь 10/10 400 м
[]
+12.9 +12.3 96 1015.3 946.8 1
03 13.07 С 1 20 км слаб. ливневой дождь 10/10 150 м
[]
+13.0 +12.5 97 +13 +13 1015.8 947.3 4
04 13.07 26 км слаб. морось 10/10 90 м
[]
+12.9 +12.4 97 1016.0 947.4 0.6
05 13.07 30 км 10/10 90 м
[]
+13.1 +12.4 96 1015.8 947.3 0.0
06 13.07 С 2 50 км 10/10 120 м
[]
+13.7 +12.3 91 +13 +13 1015.8 947.4 +12.8 0.0
07 13.07 26 км слаб. ливневой дождь 9/9 300 м
[]
+14.1 +12.1 88 1016.0 947.7 0.0
08 13.07 65 км 9/9 450 м
[]
+14.6 +11.6 82 1015.8 947.6 0.0
09 13.07 СВ 3 10 км слаб. ливневой дождь 9/9 300 м
[]
+15.2 +12.1 82 +14 +16 1016.0 947.9 0.1
10 13.07 35 км 9/9 450 м
[]
+15.9 +11.5 75 1016.2 948.3 0.3
11 13.07 30 км 6/6 450 м
[]
+17.3 +12.8 75 1015.4 947.9 0.0
12 13.07 С 3 60 км 9/9 450 м
[]
+18.9 +10.9 60 +20 +21 1014.8 947.6 0.6
14 13.07 70 км 9/9 900 м
[]
+19.1 +11.0 59 1014.5 947.4
15 13.07 С 3 45 км 9/9 900 м
[]
+18.7 +11.6 63 +20 +20 1015.1 947.9
17 13.07 60 км 9/9 1500 м
[]
+17.0 +11.0 68 1016.1 948.4
18 13.07 С 1 50 км 9/9 1500 м
[]
+16.6 +11.1 70 +17 +18 1016.3 948.5 +19.8 0.6
19 13.07 50 км 9/9 1500 м
[]
+15.3 +11.6 79 1016.9 948.8
20 13.07 55 км 9/9 1500 м
[]
+15.3 +10.9 75 1017.5 949.3 0.0
21 13.07 45 км 9/9 1500 м
[]
+14.6 +11.4 81 1017.8 949.5
22 13.07 45 км 10/10 1500 м
[]
+14.3 +11.3 82 1018.1 949.7
23 13.07 18 км слаб. дождь 10/10 360 м
[]
+13.6 +11.6 88 1018.8 950.2 0.6
00 14.07 24 км 10/10 300 м
[]
+13.4 +12.3 93 1018.4 949.8 0.0
01 14.07 28 км 10/10 180 м
[]
+13.3 +12.3 94 1018.0 949.4 0.1
02 14.07 16 км 10/10 270 м
[]
+13.0 +12.1 94 1017.7 949.0
03 14.07 С 1 16 км 10/10 150 м
[]
+12.9 +12.0 94 +13 +13 1017.5 948.8
04 14.07 19 км 10/10 120 м
[]
+13.1 +12.4 96 1017.2 948.6
05 14.07 19 км слаб. морось 10/10 210 м
[]
+13.1 +12.2 94 1016.9 948.3
06 14.07 С 2 26 км слаб. морось 10/10 210 м
[]
+13.4 +11.9 91 +13 +13 1016.6 948.1 +12.7 0.8
07 14.07 40 км 10/10 300 м
[]
+14.8 +11.9 83 1016.2 948.0
08 14.07 40 км 9/9 600 м
[]
+16.0 +11.8 76 1015.7 947.8
09 14.07 С 3 45 км 9/9 600 м
[]
+16.4 +10.9 70 +16 +17 1015.5 947.7
10 14.07 70 км 9/9 900 м
[]
+17.3 +11.0 66 1014.7 947.2
11 14.07 В 3 45 км 9/9 900 м
[]
+18.6 +11.7 64 +19 +21 1014.3 947.1
12 14.07 СВ 4 45 км 9/9 900 м
[]
+19.4 +11.6 61 +21 +22 комфорт 1013.2 946.3
13 14.07 В 3 40 км 9/9 1200 м
[]
+20.8 +10.1 50 +23 +24 комфорт 1012.2 945.6
14 14.07 СВ 4 40 км 9/9 1200 м
[]
+21.5 +9.7 47 +23 +24 комфорт 1011.4 945.0
15 14.07 В 6 60 км 9/9 1500 м
[]
+21.3 +10.3 49 +23 +23 комфорт 1011.2 944.8
16 14.07 В 5 60 км 5/5 1500 м
[]
+20.5 +9.7 50 +22 +23 комфорт 1011.3 944.7
17 14.07 СВ 3 65 км 9/9 1500 м
[]
+20.0 +10.5 54 +22 +22 комфорт 1011.5 944.8
18 14.07 В 3 65 км 9/9 1500 м
[]
+19.6 +9.1 51 +21 +21 комфорт 1012.1 945.2 +22.4
19 14.07 65 км 9/9 1500 м
[]
+18.0 +11.3 65 1012.7 945.5
20 14.07 70 км 5/5 1500 м
[]
+16.8 +11.5 71 1013.5 946.0
21 14.07 65 км 4/4 1500 м
[]
+15.9 +10.9 72 1013.9 946.1
22 14.07 70 км 9/0
[]
+15.5 +10.7 73 1014.2 946.3
23 14.07 60 км 1/0
[]
+14.2 +10.7 79 1014.3 946.1
00 15.07 С 3 70 км 5/0
[]
+13.9 +10.2 78 +13 +13 1014.2 945.9
01 15.07 65 км 1/0
[]
+12.9 +10.0 83 1014.6 946.1
02 15.07 50 км 5/0
[]
+12.4 +9.9 85 1014.8 946.1
03 15.07 В 3 50 км 4/4 960 м
[]
+12.4 +10.0 85 +11 +11 1014.6 946.0
04 15.07 30 км 6/6 1050 м
[]
+12.3 +9.9 85 1014.5 945.8
05 15.07 50 км 6/6 750 м
[]
+12.2 +9.8 85 1014.5 945.8
06 15.07 С 3 50 км 8/8 540 м
[]
+13.7 +10.2 79 +13 +13 1014.4 946.1 +12.1
07 15.07 60 км 9/9 540 м
[]
+15.0 +10.6 75 1014.3 946.3
08 15.07 40 км 8/8 750 м
[]
+17.2 +11.4 69 1013.7 946.2
09 15.07 С 2 60 км 6/6 1050 м
[]
+18.7 +10.9 60 +20 +25 1012.9 945.8
10 15.07 50 км 5/5 1350 м
[]
+20.4 +11.8 58 1012.0 945.4
11 15.07 В 4 65 км 8/8 1200 м
[]
+21.0 +11.4 54 +23 +26 комфорт 1011.5 945.0
12 15.07 С 2 45 км 8/8 1200 м
[]
+22.3 +10.5 47 +24 +28 комфорт 1010.7 944.5
13 15.07 З 6 45 км 8/8 1500 м
[]
+23.0 +12.6 52 +26 +27 жарко 1010.2 944.3
14 15.07 З 7 55 км 8/8 1500 м
[]
+22.5 +9.3 43 +24 +25 комфорт 1010.5 944.4
15 15.07 С 3 65 км 8/8 1500 м
[]
+22.6 +9.8 44 +24 +26 комфорт 1010.7 944.6
16 15.07 В 3 45 км 8/8 1500 м
[]
+22.4 +10.6 47 +24 +25 комфорт 1011.1 944.9 0.0
17 15.07 70 км 8/8 1500 м
[]
+21.3 +11.4 53 1011.6 945.2
18 15.07 С 1 55 км 6/6 1500 м
[]
+20.1 +11.9 59 +23 +23 комфорт 1012.4 945.7 +23.8 0.0
19 15.07 50 км 6/6 1500 м
[]
+18.7 +11.4 63 1013.5 946.4
20 15.07 50 км 6/6 1500 м
[]
+17.7 +10.4 62 1014.4 947.0
21 15.07 С 1 45 км 6/6 1500 м
[]
+16.0 +10.5 70 +17 +17 1015.5 947.6
22 15.07 45 км 1/1 1500 м
[]
+15.1 +10.8 75 1016.2 948.1
23 15.07 55 км 1/0 2000 м
[]
+14.6 +10.3 75 1016.6 948.3
00 16.07 С 1 40 км 1/1 1500 м
[]
+13.1 +10.1 82 +13 +13 1017.3 948.6
01 16.07 40 км н/о +11.9 +9.7 86 1017.7 948.7
02 16.07 35 км 5/0
[]
+11.8 +9.8 88 1017.9 948.9
03 16.07 С 1 20 км 4/0 2000 м
[]
+11.6 +9.7 88 +11 +11 1018.2 949.1
04 16.07 20 км 1/1 1500 м
[]
+11.5 +9.8 89 1018.3 949.2
05 16.07 29 км 1/1 1500 м
[]
+12.1 +10.1 88 1018.5 949.5
06 16.07 30 км 1/1 1500 м
[]
+13.9 +10.5 80 1018.0 949.5 +11.0
07 16.07 45 км 3/3 1500 м
[]
+16.2 +10.9 71 1017.2 949.3
08 16.07 35 км 3/3 1500 м
[]
+18.0 +11.5 66 1016.2 948.8
09 16.07 50 км 3/3 1500 м
[]
+20.5 +12.3 59 1014.9 948.1
10 16.07 35 км 3/3 1500 м
[]
+21.8 +10.0 47 1014.1 947.6
11 16.07 50 км 3/0 2000 м
[]
+23.4 +9.5 41 1013.4 947.3
12 16.07 45 км 3/0 2000 м
[]
+25.3 +11.1 41 1012.3 946.7
13 16.07 55 км 4/0 2000 м
[]
+25.9 +8.9 34 1011.7 946.2
14 16.07 55 км 3/0
[]
+25.9 +9.8 36 1011.5 946.0
15 16.07 СВ 4 55 км 3/0
[]
+25.9 +8.9 34 +26 +31 жарко 1011.2 945.7
16 16.07 В 4 55 км 3/0
[]
+26.1 +9.5 35 +27 +29 жарко 1011.0 945.6
17 16.07 В 5 55 км 3/0
[]
+25.1 +9.5 37 +26 +27 жарко 1011.3 945.7
18 16.07 В 6 60 км 3/0
[]
+23.9 +10.2 42 +25 +25 комфорт 1011.9 946.0 +26.3
19 16.07 В 4 60 км 3/0
[]
+22.6 +10.2 45 +24 +24 комфорт 1012.7 946.5
20 16.07 60 км 1/0
[]
+20.4 +10.9 54 1014.1 947.3
21 16.07 50 км 1/0
[]
+17.7 +11.3 66 1015.3 947.8
22 16.07 55 км н/о +16.6 +10.9 69 1015.9 948.1
23 16.07 50 км н/о +15.2 +10.9 75 1016.3 948.2
00 17.07 штиль 0 45 км н/о +14.6 +10.9 78 +14 +14 1016.7 948.4
01 17.07 40 км н/о +13.7 +10.7 82 1017.0 948.5
02 17.07 40 км н/о +12.8 +10.0 83 1017.0 948.3
03 17.07 35 км н/о +12.7 +10.3 85 1016.9 948.2
04 17.07 30 км 5/0
[]
+12.1 +10.0 87 1017.1 948.2
05 17.07 28 км 5/0
[]
+13.4 +10.6 83 1016.5 948.0
06 17.07 С 2 35 км 5/0
[]
+15.0 +11.0 77 +15 +17 1015.8 947.7 +11.8
07 17.07 35 км 5/0
[]
+16.9 +11.6 71 1015.0 947.4
08 17.07 45 км 8/8 1500 м
[]
+18.9 +11.3 61 1014.0 946.9
09 17.07 С 1 45 км 4/4 1500 м
[]
+21.6 +11.7 53 +24 +33 комфорт 1012.3 945.9
10 17.07 35 км 4/0 2000 м
[]
+23.5 +11.2 46 1010.8 944.9
11 17.07 40 км 4/0 2000 м
[]
+25.0 +11.4 43 1009.9 944.4
12 17.07 СВ 3 30 км 4/0 2000 м
[]
+26.3 +11.6 40 +28 +39 жарко 1008.9 943.7
13 17.07 35 км 4/0 2000 м
[]
+27.3 +9.1 32 1008.0 943.0
14 17.07 В 4 40 км 6/0
[]
+27.8 +10.0 33 +28 +34 жарко 1007.3 942.5
15 17.07 В 4 55 км 6/0
[]
+27.2 +10.4 35 +28 +32 жарко 1007.2 942.3
16 17.07 СВ 4 60 км гроза без осадков 8/0
[]
+25.7 +11.9 42 +27 +29 жарко 1007.5 942.3
17 17.07 В 6 60 км 9/0 2000 м
[]
+25.0 +11.6 43 +26 +27 жарко 1008.2 942.8
18 17.07 В 5 50 км 9/0 2000 м
[]
+23.5 +12.4 50 +25 +26 комфорт 1009.2 943.4 +28.3
19 17.07 С 2 45 км 9/0 2000 м
[]
+22.4 +12.7 54 +25 +25 комфорт 1009.7 943.7
20 17.07 С 3 45 км 5/0
[]
+20.9 +13.9 64 +24 +24 комфорт 1010.7 944.3
21 17.07 С 2 40 км 3/0
[]
+19.1 +13.8 71 +21 +21 комфорт 1011.7 944.8
22 17.07 С 2 45 км н/о +17.7 +13.2 75 +18 +18 1012.3 945.1
23 17.07 С 1 40 км н/о +15.8 +12.3 80 +16 +16 1013.0 945.3
00 18.07 40 км н/о +16.1 +12.2 78 1013.2 945.5
01 18.07 35 км 1/0
[]
+16.8 +11.7 72 1012.9 945.4
02 18.07 35 км н/о +14.3 +11.5 83 1013.6 945.5
03 18.07 35 км 1/0
[]
+13.6 +11.0 84 1013.9 945.6
04 18.07 С 1 27 км 4/0 2000 м
[]
+13.1 +10.6 85 +13 +13 1014.2 945.8
05 18.07 С 2 35 км 4/0 2000 м
[]
+14.1 +10.9 81 +14 +15 1014.1 945.9
06 18.07 С 2 29 км 8/0
[]
+14.9 +11.3 79 +15 +17 1014.0 946.0 +12.5
07 18.07 З 3 40 км 9/0 2000 м
[]
+16.8 +11.5 71 +17 +20 1013.6 946.1
08 18.07 30 км 9/0
[]
+18.2 +10.9 62 1013.1 945.9

 

Местоположение метеостанции Инсбрук (Австрия): широта 47.27 долгота 11.35 высота над уровнем моря 584 м.

В архиве по умолчанию представлена погода в Инсбруке за последнюю неделю. Архивные данные за месяц целиком и за предыдущие месяцы, начиная с января 2011 года, Вы можете получить, выбрав интересующий диапазон дат из раскрывающегося списка и нажав кнопку "Ввод!".


*Определитесь, кто Вы:
робот инопланетянин человек

Внимание! Время в таблицах - всемирное. Для получения местного времени необходимо прибавить поправку, которая равна 1 ч.

Смотрите также архив погоды в соседних городах и на ближайших метеорологических станциях:

Погода в Инсбруке АМС (Австрия) (2 км)
Погода в Пачеркофеле (Австрия) (11 км)
Погода в Зефельд-ин-Тироль (Австрия) (14 км)
Погода в Бреннере новая (Австрия) (31 км)
Погода в Гармише (Германия) (31 км)
Погода на Цугшпитце (Германия) (32 км)
Погода в Енбахе (Австрия) (33 км)
Погода в Ахенкирьхе (Австрия) (37 км)
Погода в Ахенкирьхе (Австрия) (38 км)
Погода в Майрхофене (Австрия) (39 км)

Пояснения к столбцам:

Ветер - указаны скорость ветра в м/с - средняя за 10 мин, порывы в срок и между сроками (в фигурных скобках) и направление, откуда дует ветер: С - северный, СВ - северо-восточный, В - восточный, ЮВ - юго-восточный, Ю - южный, ЮЗ - юго-западный, З - западный, СЗ - северо-западный.
Видимость - горизонтальная дальность видимости в метрах или километрах. При видимости от 1 до 10 км при отсутствии осадков обычно наблюдается дымка, при ухудшении видимости до 1 км и менее - туман. В сухую погоду видимость может ухудшаться дымом, пылью или мглою.
Явления - указаны атмосферные явления, наблюдавшиеся в срок или в последний час перед сроком; фигурными скобками обозначены явления, наблюдавшиеся между сроками (за 1-3 часа до срока); квадратными скобками обозначены град или гололедные отложения с указанием их диаметра в мм.
Облачность - указаны через наклонную черту общая и нижняя облачность в баллах и высота нижней границы облаков в метрах; квадратными скобками обозначены формы облаков: Ci - перистые, Cs - перисто-слоистые, Cc - перисто-кучевые, Ac - высококучевые, As - высокослоистые, Sc - слоисто-кучевые, Ns - слоисто-дождевые, Cu - кучевые, Cb - кучево-дождевые. Подробнее классификацию облаков см. в Атласе облаков (PDF).
T - Температура воздуха - температура, измеренная на высоте 2 м над землей.
Td - Температура точки росы - температура, при понижении до которой содержащийся в воздухе водяной пар достигнет насыщения.
f - Относительная влажность воздуха - влажноcть воздуха, измеренная на высоте 2 м над землей.
Te - Эффективная температура - температура, которую ощущает одетый по сезону человек в тени. Характеристика душности погоды. При расчете учитывается влияние влажности воздуха и скорости ветра на теплоощущения человека.
Tes - Эффективная температура на солнце - температура, которую ощущает человек, с поправкой на солнечный нагрев. Характеристика знойности погоды. Зависит от высоты солнца над горизонтом, облачности и скорости ветра. Ночью, в пасмурную погоду, а также при ветре 12 м/с и более поправка равна нулю.
P - Атмосферное давление - приведенное к уровню моря атмосферное давление.
Po - Атмосферное давление - измеренное на уровне метеостанции атмосферное давление.
Tmin - Минимальная температура - минимум температуры воздуха на высоте 2 м над землей.
Tmax - Максимальная температура - максимум температуры воздуха на высоте 2 м над землей.
R - Количество осадков - Количество выпавших осадков за период времени, мм. При наведении курсора мыши на число - период времени, за который выпало указанное количество осадков.
R24 - Количество осадков - Количество выпавших осадков за 24 часа, мм.
S - Снежный покров - Высота снежного покрова, см. При наведении курсора мыши на число - состояние снежного покрова и степень покрытия местности в баллах.